www.pogodaiklimat.ru

Погода и климат >> Архив погоды >> Бангладеш >> Ситакунду


ПОГОДА в Ситакунду

  • Прогноз погоды в Ситакунду
  • Монитор погоды в Ситакунду

АРХИВ ПОГОДЫ в Ситакунду

Время (UTC), дата Ветер
(напр.,м/с)
 
Видим.   Явления Облачность Т
(С)
Тd
(С)
f
(%)
Тe
(С)
Тes
(С)
Комфортность P
(гПа)
Po
(гПа)
Тmin
(С)
Tmax
(С)
R
(мм)
R24
(мм)
S
(см)
06 22.05 штиль 0 6000 м мгла ясно +34.3 +25.0 58 +48 +78 опасность
перегрева
1008.3 1007.5
09 22.05 ЮЗ 1 6000 м мгла ясно +33.5 +26.0 65 +49 +63 опасность
перегрева
1006.0 1005.1
12 22.05 штиль 0 5000 м мгла ясно +31.5 +26.0 73 +47 +48 опасность
перегрева
1004.9 1004.1 +34.6
15 22.05 штиль 0 5000 м мгла ясно +29.0 +25.0 79 +42 +42 опасность
перегрева
1006.4 1005.6
00 23.05 штиль 0 6000 м {гроза, дождь} 10/4 300 м
[Cb calv As op]
+23.0 +22.0 94 +31 +31 очень
душно
1007.9 1007.0 44
03 23.05 штиль 0 7000 м 3/0
[Cc]
+28.0 +23.0 74 +37 +54 опасность
солнечного
удара
1008.8 1008.0 +23.0
06 23.05 штиль 0 7000 м ясно +33.0 +24.0 59 +45 +75 опасность
перегрева
1007.9 1007.1
09 23.05 штиль 0 7000 м ясно +32.5 +23.0 57 +43 +59 опасность
перегрева
1005.5 1004.7
12 23.05 штиль 0 5000 м мгла 4/0
[Cc]
+30.0 +25.0 75 +43 +44 опасность
перегрева
1005.2 1004.4 +33.5
15 23.05 штиль 0 5000 м мгла ясно +29.5 +25.0 77 +43 +43 опасность
перегрева
1007.0 1006.2
00 24.05 ЮВ 1 5000 м слаб. дождь {гроза} 10/5 300 м
[Cb calv As op]
+26.0 +24.0 89 +36 +36 очень
душно
1008.3 1007.4 2
03 24.05 ЮЗ 1 7000 м {дождь} 5/4 540 м
[Sc diur, vesp]
+29.5 +27.0 86 +46 +55 опасность
перегрева
1008.0 1007.1 +26.0
06 24.05 ЮЗ 2 7000 м {дождь} 3/3 540 м
[Sc diur, vesp]
+33.0 +28.0 75 +54 +70 опасность
перегрева
1007.0 1006.2 1
12 24.05 штиль 0 5000 м слаб. дождь 10/5 300 м
[Cb calv As op]
+28.0 +26.0 89 +42 +42 опасность
перегрева
1004.0 1003.2 +33.5 1
15 24.05 штиль 0 5000 м гроза, ливневой дождь 10/5 300 м
[Cb calv As op]
+24.0 +23.0 94 +32 +32 очень
душно
1008.0 1007.1
18 24.05 штиль 0 6000 м {гроза, дождь} 4/4 540 м
[Sc diur, vesp]
+23.5 +22.0 91 +30 +30 очень
душно
1007.6 1006.7 46
00 25.05 штиль 0 6000 м 10/5 300 м
[Cb calv As op]
+24.0 +22.0 89 +31 +31 очень
душно
1006.6 1005.7
06 25.05 Ю 1 6000 м {дождь} 10/4 300 м
[Cb calv As op]
+26.0 +24.0 89 +36 +39 очень
душно
1006.6 1005.7 11
12 25.05 штиль 0 6000 м {гроза, дождь} 4/0
[Cc]
+26.5 +24.0 86 +37 +37 очень
душно
1003.6 1002.7 +27.5 2
18 25.05 ЮЗ 3 6000 м 10/4 300 м
[Cb calv As op]
+25.5 +24.0 91 +35 +35 очень
душно
1004.2 1003.3
00 26.05 ЮВ 1 6000 м 4/0
[Cc]
+27.0 +24.0 84 +37 +38 очень
душно
1005.1 1004.2
03 26.05 ЮЗ 1 6000 м 10/4 300 м
[Cb calv As op]
+31.0 +26.0 75 +46 +48 опасность
перегрева
1006.3 1005.5 +24.0
06 26.05 штиль 0 7000 м 10/4 300 м
[Cb calv As op]
+31.5 +25.0 68 +45 +48 опасность
перегрева
1005.8 1005.0
09 26.05 ЮЗ 1 6000 м слаб. дождь {гроза} 10/4 300 м
[Cb calv As op]
+29.0 +28.0 94 +48 +50 опасность
перегрева
1003.8 1003.0
12 26.05 штиль 0 6000 м {гроза, дождь} 10/4 300 м
[Cb calv As op]
+30.0 +28.0 89 +50 +50 опасность
перегрева
1003.5 1002.7 +33.0 7
15 26.05 штиль 0 7000 м 4/4 540 м
[Sc diur, vesp]
+29.0 +28.0 94 +48 +48 опасность
перегрева
1005.5 1004.7
18 26.05 штиль 0 7000 м 3/3 540 м
[Sc diur, vesp]
+28.5 +28.0 97 +47 +47 опасность
перегрева
1005.3 1004.5
00 27.05 штиль 0 6000 м ясно +29.0 +27.0 89 +46 +47 опасность
перегрева
1005.5 1004.7
03 27.05 штиль 0 7000 м ясно +32.5 +27.0 73 +51 +68 опасность
перегрева
1006.7 1005.9 +27.0
06 27.05 штиль 0 7000 м ясно +33.5 +27.0 69 +52 +82 опасность
перегрева
1006.0 1005.2
09 27.05 Ю 1 7000 м 3/3 540 м
[Sc diur, vesp]
+33.5 +29.0 77 +57 +67 опасность
перегрева
1004.0 1003.2

 

Местоположение метеостанции Ситакунду (Бангладеш): широта 22.58 долгота 91.70 высота над уровнем моря 44 м.

В архиве по умолчанию представлена погода в Ситакунду за последнюю неделю. Архивные данные за месяц целиком и за предыдущие месяцы, начиная с января 2011 года, Вы можете получить, выбрав интересующий диапазон дат из раскрывающегося списка и нажав кнопку "Ввод!".


*Определитесь, кто Вы:
робот инопланетянин человек

Внимание! Время в таблицах - всемирное. Для получения местного времени необходимо прибавить поправку, которая равна 6.5 ч.

Смотрите также архив погоды в соседних городах и на ближайших метеорологических станциях:

Погода в Сандвипе (Бангладеш) (30 км)
Погода в Читтагонге (Бангладеш) (37 км)
Погода в Рангамати (Бангладеш) (52 км)
Погода в Фени (Бангладеш) (58 км)
Погода в Хатии (Бангладеш) (64 км)
Погода в Маиидиcурте (Бангладеш) (69 км)
Погода в Кутапдии (Бангладеш) (86 км)
Погода в Бхоле (Бангладеш) (108 км)
Погода в Комилле (Бангладеш) (109 км)
Погода в Чандпуре (Бангладеш) (128 км)

Пояснения к столбцам:

Ветер - указаны скорость ветра в м/с - средняя за 10 мин, порывы в срок и между сроками (в фигурных скобках) и направление, откуда дует ветер: С - северный, СВ - северо-восточный, В - восточный, ЮВ - юго-восточный, Ю - южный, ЮЗ - юго-западный, З - западный, СЗ - северо-западный.
Видимость - горизонтальная дальность видимости в метрах или километрах. При видимости от 1 до 10 км при отсутствии осадков обычно наблюдается дымка, при ухудшении видимости до 1 км и менее - туман. В сухую погоду видимость может ухудшаться дымом, пылью или мглою.
Явления - указаны атмосферные явления, наблюдавшиеся в срок или в последний час перед сроком; фигурными скобками обозначены явления, наблюдавшиеся между сроками (за 1-3 часа до срока); квадратными скобками обозначены град или гололедные отложения с указанием их диаметра в мм.
Облачность - указаны через наклонную черту общая и нижняя облачность в баллах и высота нижней границы облаков в метрах; квадратными скобками обозначены формы облаков: Ci - перистые, Cs - перисто-слоистые, Cc - перисто-кучевые, Ac - высококучевые, As - высокослоистые, Sc - слоисто-кучевые, Ns - слоисто-дождевые, Cu - кучевые, Cb - кучево-дождевые. Подробнее классификацию облаков см. в Атласе облаков (PDF).
T - Температура воздуха - температура, измеренная на высоте 2 м над землей.
Td - Температура точки росы - температура, при понижении до которой содержащийся в воздухе водяной пар достигнет насыщения.
f - Относительная влажность воздуха - влажноcть воздуха, измеренная на высоте 2 м над землей.
Te - Эффективная температура - температура, которую ощущает одетый по сезону человек в тени. Характеристика душности погоды. При расчете учитывается влияние влажности воздуха и скорости ветра на теплоощущения человека.
Tes - Эффективная температура на солнце - температура, которую ощущает человек, с поправкой на солнечный нагрев. Характеристика знойности погоды. Зависит от высоты солнца над горизонтом, облачности и скорости ветра. Ночью, в пасмурную погоду, а также при ветре 12 м/с и более поправка равна нулю.
P - Атмосферное давление - приведенное к уровню моря атмосферное давление.
Po - Атмосферное давление - измеренное на уровне метеостанции атмосферное давление.
Tmin - Минимальная температура - минимум температуры воздуха на высоте 2 м над землей.
Tmax - Максимальная температура - максимум температуры воздуха на высоте 2 м над землей.
R - Количество осадков - Количество выпавших осадков за период времени, мм. При наведении курсора мыши на число - период времени, за который выпало указанное количество осадков.
R24 - Количество осадков - Количество выпавших осадков за 24 часа, мм.
S - Снежный покров - Высота снежного покрова, см. При наведении курсора мыши на число - состояние снежного покрова и степень покрытия местности в баллах.